sat.trackr.live / text

‹ back to catalog

IRIDIUM 142

NORAD 43256 · 2018-030H

PAYLOAD ACTIVE UNKNOWN

§ Identity

Operator
Country
US
Launch date
2018-03-30
Launch site
AFWTR
Launch vehicle
Mass (kg)
RCS (m²)

Purposes: comms

External: N2YO · Heavens-Above · Gunter

§ Orbital elements

Epoch: 2026-05-25T03:44:59.718336Z

Period
100.40 min
Inclination
86.3936°
Eccentricity
0.0001981
Mean motion
14.34219163 rev/d
Perigee alt
776.2 km
Apogee alt
779.1 km
Semi-major
7,155.8 km
B*
7.0632e-5
RAAN
299.9835°
Arg perigee
89.4100°
Mean anomaly
270.7322°
Rev number
42,683

§ Raw data

IRIDIUM 1421 43256U 18030H   26145.15624674  .00000218  00000+0  70632-4 0  99972 43256  86.3936 299.9835 0001981  89.4100 270.7322 14.34219163426833

JSON: /api/v1/satellites/43256 · /tle

For live sub-satellite position, see the globe view (requires WebGL).

§ Visibility from observer

Set your observer location to see the next 7 days of passes ≥ 10°. The values pass through the URL so the page stays shareable.

No JS? Fill the form by hand. The geolocation button needs JavaScript.